Location: Zapote
(9.9191°N, 84.0597°W)
Time: 09:49:47
(UTC-06:00)

SR - All Passes

Search period start: 26 February 2021 00:00
Search period end: 08 March 2021 00:00
Orbit: 573 x 882 km, 66.7° (Epoch: 25 February)

Date Brightness Start Highest point End Pass type
(mag) Time Alt. Az. Time Alt. Az. Time Alt. Az.
26 Feb - 06:12:46 10° NNW 06:18:35 79° WSW 06:23:59 10° SSE daylight
26 Feb - 18:44:13 10° SSW 18:48:45 69° WNW 18:53:43 10° NNE visible
27 Feb - 05:23:21 10° N 05:28:50 43° ENE 05:33:59 10° SE visible
27 Feb - 07:07:38 10° WNW 07:10:27 14° WSW 07:13:12 10° SW daylight
27 Feb - 17:54:51 10° S 17:59:08 41° ESE 18:03:45 10° NE daylight
27 Feb - 19:40:16 10° WNW 19:41:13 11° WNW 19:42:12 10° NW visible
28 Feb - 04:35:01 10° NNE 04:38:56 18° ENE 04:42:42 10° ESE visible
28 Feb - 06:15:47 10° NW 06:20:56 35° WSW 06:25:47 10° S daylight
28 Feb - 17:07:01 10° SE 17:09:37 15° ESE 17:12:20 10° ENE daylight
28 Feb - 18:47:17 10° SW 18:51:16 28° WNW 18:55:32 10° N visible
01 Mar - 05:25:32 10° NNW 05:31:19 86° WSW 05:36:43 10° SSE visible
01 Mar - 17:56:54 10° SSW 18:01:28 77° WNW 18:06:29 10° NNE visible
02 Mar - 04:36:11 10° N 04:41:34 39° ENE 04:46:36 10° SE visible
02 Mar - 06:20:02 10° WNW 06:23:13 15° WSW 06:26:17 10° SW daylight
02 Mar - 17:07:38 10° S 17:11:51 37° ESE 17:16:25 10° NE daylight
02 Mar - 18:52:08 10° W 18:53:55 12° WNW 18:55:45 10° NW visible
03 Mar - 03:48:03 10° NNE 03:51:39 17° ENE 03:55:07 10° ESE visible
03 Mar - 05:28:26 10° NW 05:33:41 38° WSW 05:38:36 10° S visible
03 Mar - 16:20:03 10° SE 16:22:21 14° ESE 16:24:44 10° ENE daylight
03 Mar - 17:59:51 10° SW 18:03:57 31° WNW 18:08:24 10° N visible
04 Mar - 04:38:17 10° NNW 04:44:03 87° ENE 04:49:26 10° SSE visible
04 Mar - 17:09:34 10° SSW 17:14:10 85° WNW 17:19:15 10° NNE daylight
05 Mar - 03:49:02 10° N 03:54:17 36° ENE 03:59:13 10° SE visible
05 Mar - 05:32:30 10° WNW 05:35:58 17° WSW 05:39:18 10° SW daylight
05 Mar - 16:20:25 10° S 16:24:35 34° ESE 16:29:04 10° NE daylight
05 Mar - 18:04:18 10° W 18:06:36 13° WNW 18:08:59 10° NW visible
06 Mar - 03:01:05 10° NNE 03:04:21 15° ENE 03:07:30 10° E visible
06 Mar - 04:41:06 10° NW 04:46:25 41° WSW 04:51:24 10° S visible
06 Mar - 15:33:11 10° SE 15:35:05 12° ESE 15:37:02 10° E daylight
06 Mar - 17:12:25 10° SW 17:16:39 34° WNW 17:21:15 10° N daylight
07 Mar - 03:51:02 10° NNW 03:56:47 81° ENE 04:02:07 10° SSE visible
07 Mar - 16:22:15 10° SSW 16:26:53 87° ESE 16:31:59 10° NNE daylight
